User: anonymous
Location: Meriden
(44.0740°N, 93.3870°W)
Time: 17:13:22
(UTC-05:00)
Language:

AO-27 - Orbit

View from above orbital plane
View from above orbital plane
View from above satellite
View from above satellite

Ground track
Ground track

The orbit data is extracted from the following two-line orbital elements,

1 22825U 93061C   14242.45332628  .00000068  00000-0  43855-4 0  7478
2 22825 098.6674 188.1580 0009570 083.1215 029.9003 14.29739558 91391
Epoch (UTC): 30 August 2014 10:52:47
Eccentricity: 0.0009570
inclination: 98.6674°
perigee height: 786 km
apogee height: 799 km
right ascension of ascending node: 188.1580°
argument of perigee: 83.1215°
revolutions per day: 14.29739558
mean anomaly at epoch: 29.9003°
orbit number at epoch: 9139

The dashed part of the orbit path shows where the satellite is in the earth's shadow,  

DLR